Flag for Canada Weather past 2 weeks in Halton Hills, Ontario, Canada

Now
73 °F

Mostly cloudy.


Feels Like: 74 °F
Forecast: 61 / 72 °F
Wind: 14 mph from Northwest

Location: Toronto Pearson International Airport

Current Time: Jul 23, 2014 at 9:34:14 AM

Latest Report: Jul 23, 2014 at 8:00 AM


Visibility: 15 mi

Pressure: 29.86 "Hg

Humidity: 78%

Dew point: 66 °F

Location of Halton HillsLocation

Historic Weather in Halton Hills — Graph

°F

Halton Hills temperature yesterday

Maximum temperature yesterday: 86 °F (at 7:00 PM)
Minimum temperature yesterday: 66 °F (at 5:00 AM)
Average temperature yesterday: 75 °F

Past Weeks' High & Low Weather Summary

 TemperatureHumidityPressure
High86 °F (Jul 22, 7:00 PM)100% (Jul 19, 9:00 PM)30.25 "Hg (Jul 19, 9:00 PM)
Low52 °F (Jul 17, 5:00 AM)29% (Jul 18, 6:00 PM)29.48 "Hg (Jul 8, 4:00 PM)
Average68 °F67%29.99 "Hg
* Reported Jul 8 8:00 AM — Jul 23 8:00 AM, Halton Hills, Weather by CustomWeather, © 2014

Note: Actual official high and low records may vary slightly from our data, if they occured in-between our weather recording intervals... More about our weather records

Advertising

Halton Hills weather history for previous 24 hours

 ConditionsComfort  
Time TempWeatherWind HumidityBarometerVisibility
8:00 AM
Jul 23
73 °FMostly cloudy.14 mph78%29.86 "Hg15 mi
7:00 AM75 °FOvercast.8 mph83%29.85 "Hg8 mi
6:00 AM73 °FOvercast.8 mph89%29.86 "Hg10 mi
5:00 AM75 °FPartly cloudy.8 mph83%29.82 "Hg15 mi
4:00 AM75 °FOvercast.13 mph83%29.83 "Hg15 mi
1:00 AM77 °FPartly cloudy.12 mph69%29.90 "Hg15 mi
12:00 AM79 °FThunderstorms. Partly cloudy.6 mph65%29.92 "Hg10 mi
11:00 PM
Jul 22
79 °FPassing clouds.13 mph65%29.91 "Hg15 mi
10:00 PM81 °FPassing clouds.13 mph62%29.92 "Hg15 mi
9:00 PM81 °FScattered clouds.10 mph62%29.90 "Hg15 mi
8:00 PM82 °FPassing clouds.15 mph55%29.93 "Hg15 mi
7:00 PM86 °FSunny.15 mph49%29.95 "Hg15 mi
12:00 PM82 °FSunny.8 mph55%30.06 "Hg15 mi
11:00 AM81 °FSunny.7 mph62%30.09 "Hg15 mi
10:00 AM79 °FSunny.5 mph61%30.10 "Hg15 mi
9:00 AM75 °FSunny.2 mph69%30.12 "Hg15 mi
Weather by CustomWeather, © 2014

See weather overviewHow to use our weather pages